[[{"header":{"parameterUnit":"m.s-1","parameterCategory":2,"la1":30.2991,"la2":30.254,"lo1":-89.0895,"lo2":-89.0444,"dy":0.0017,"dx":0.0017,"nx":28,"ny":28,"refTime":"2025-06-17T03:00:00:Z","depth":"0","parameterNumber":2,"parameterNumberName":"U-component_of_CURRENTS"},"data":[0,0,0,0,0,0,0,0,0,0,0,0,0,0,0,0,0,0,0,0,0,0,0,0,0,0,0,0,0,0,0,0,0,0,0,0,0,0,0,0,0,0,0,0,0,0,0,0,0,0,0,0,0,0,0,0,0,0,0.1826,0.1826,0,0.1841,0.1841,0.1841,0.1826,0.1825,0.1825,0.1824,0.1778,0.1777,0.1776,0,0,0,0,0,0,0,0,0,0,0,0,0,0.1753,0.1755,0.1826,0.1826,0.1827,0.1841,0.1841,0.1841,0.1826,0.1825,0.1825,0.1824,0.1778,0.1777,0.1776,0,0,0,0,0,0,0,0,0,0,0,0,0,0.1776,0.1755,0.1826,0.1822,0.1823,0.1841,0.1841,0.1841,0.1826,0.1825,0.1825,0.1824,0.1778,0.1777,0.1776,0.1779,0,0,0.1772,0.1771,0,0,0,0,0,0,0,0,0.1775,0.1779,0.1823,0.1823,0.1823,0.1833,0.1798,0.1818,0.1826,0.1822,0.1824,0.1824,0.1792,0.179,0.1792,0.1777,0.1775,0.1772,0.1771,0.177,0.177,0,0,0,0,0,0,0,0.1773,0.1778,0.1829,0.1823,0.1823,0.181,0.1812,0.1802,0.1807,0.1822,0.1822,0.1827,0.1792,0.1793,0.179,0.1774,0.1772,0.1771,0.177,0.1769,0.1782,0.1783,0,0,0,0,0,0,0.1779,0.1777,0.1829,0.183,0.1799,0.1812,0.1815,0.1828,0.1809,0.1807,0.1828,0.1827,0.1796,0.1792,0.1789,0.1811,0.177,0.1769,0.1768,0.1781,0.1782,0.1783,0,0,0,0,0,0,0.1777,0.1784,0.1828,0.1805,0.181,0.1814,0.1829,0.1829,0.1834,0.1814,0.181,0.1833,0.1795,0.179,0.1793,0.1808,0.1769,0.1767,0.1779,0.1781,0.1783,0.1843,0,0,0,0,0,0,0.1775,0.1783,0.1798,0.1806,0.1811,0.1844,0.183,0.183,0.1839,0.1837,0.1818,0.1812,0.1794,0.1795,0.1792,0.1806,0.1766,0.1778,0.178,0.1782,0.184,0.1847,0.1853,0,0,0,0,0,0.1773,0.1795,0.1798,0.1805,0.1831,0.1844,0.1846,0.1845,0.184,0.1846,0.1839,0.1813,0.1806,0.1795,0.1791,0.1805,0.1777,0.1779,0.1782,0.1837,0.1845,0.1852,0,0,0,0,0,0,0.1778,0.1796,0.18,0.1829,0.1838,0.1843,0.1849,0.1851,0.1852,0.1845,0.1828,0.1823,0.1833,0.1813,0.1801,0.1816,0.1787,0.1789,0.183,0.1838,0.1844,0.185,0.1765,0,0,0,0,0,0.1786,0.1802,0.1817,0.184,0.1843,0.1847,0.1854,0.1852,0.1854,0.1854,0.1846,0.1837,0.184,0.1834,0.1829,0.1834,0.1853,0.1841,0.1847,0.1853,0.1856,0.191,0.1922,0.1792,0.1792,0.1791,0,0,0.1795,0.1807,0.1816,0.1841,0.1844,0.1855,0.1849,0.1857,0.1869,0.1847,0.1859,0.1859,0.1849,0.186,0.1861,0.1843,0.1905,0.1856,0.1861,0.1861,0.1914,0.1927,0.1938,0.1793,0.1793,0.1793,0,0,0.1809,0.1828,0.1839,0.185,0.186,0.1862,0.1867,0.1875,0.188,0.1893,0.1889,0.1906,0.1894,0.1904,0.1903,0.1943,0.1942,0.1934,0.1966,0.2019,0.203,0.204,0.2105,0.2121,0.1933,0.1933,0.1933,0,0.1818,0.1834,0.1845,0.1858,0.1863,0.1867,0.1874,0.1888,0.1899,0.1908,0.1899,0.1927,0.1919,0.1952,0.1967,0.1958,0.199,0.1937,0.2029,0.2039,0.2048,0.2112,0.2128,0.1936,0.1936,0.1935,0.1935,0,0.1837,0.1849,0.1856,0.1871,0.1883,0.1886,0.1904,0.1917,0.1921,0.1935,0.1969,0.1979,0.1994,0.2001,0.1993,0.2055,0.206,0.2037,0.2011,0.2065,0.2129,0.2145,0.1941,0.1939,0.1938,0.1938,0,0,0.1853,0.1862,0.1865,0.1867,0.1882,0.1894,0.1916,0.1936,0.1964,0.1981,0.2025,0.2043,0.2056,0.2059,0.2066,0.2111,0.2216,0.2103,0.2104,0.2171,0.2352,0.236,0.2378,0.221,0.2213,0.2215,0.2379,0,0.1856,0.1868,0.1875,0.1889,0.1892,0.1904,0.1931,0.1957,0.1982,0.2033,0.2058,0.2102,0.2077,0.2102,0.2144,0.22,0.2256,0.2174,0.2284,0.2288,0.2292,0.2396,0.2296,0.2434,0.2394,0.2397,0.2399,0,0.1872,0.1872,0.1875,0.189,0.1894,0.1909,0.1947,0.1975,0.2042,0.2069,0.2114,0.2145,0.222,0.2194,0.2316,0.2266,0.2314,0.2354,0.2361,0.2355,0.2326,0.2368,0.2464,0.2322,0.2423,0.2421,0.2419,0,0.1869,0.1877,0.1871,0.1877,0.1898,0.1906,0.1924,0.1981,0.2007,0.2106,0.2139,0.2226,0.2273,0.2351,0.242,0.2382,0.2563,0.2518,0.2575,0.2577,0.2505,0.2496,0.2476,0.2614,0.2614,0.2613,0.2613,0,0.1871,0.1874,0.1869,0.187,0.1873,0.1904,0.193,0.1971,0.2039,0.2082,0.2157,0.2216,0.2312,0.2411,0.2472,0.2587,0.2606,0.2615,0.263,0.2526,0.2517,0.2398,0.2377,0.262,0.2618,0.2617,0.2616,0,0.1877,0.1871,0.1864,0.1869,0.1867,0.1877,0.1901,0.1935,0.2006,0.2071,0.2105,0.2227,0.2373,0.2476,0.2629,0.2649,0.2689,0.2794,0.2676,0.2674,0.2579,0.2567,0.2513,0.2465,0.2898,0.2899,0.2901,0,0.1879,0.1874,0.1853,0.1837,0.1832,0.1841,0.185,0.1908,0.1942,0.2072,0.2105,0.2267,0.2373,0.2613,0.2724,0.2878,0.2743,0.2842,0.2744,0.2592,0.2589,0.2437,0.2387,0.2687,0.2686,0.2686,0.2685,0,0.1871,0.1859,0.1846,0.1815,0.1803,0.1798,0.1816,0.1832,0.1918,0.1979,0.2095,0.22,0.2441,0.2554,0.2753,0.2836,0.2682,0.2835,0.2698,0.246,0.2271,0.2223,0.2567,0.268,0.268,0.2681,0.2681,0.2681,0.1852,0.1838,0.181,0.1784,0.1766,0.1756,0.1745,0.178,0.1825,0.1897,0.2033,0.2139,0.2312,0.2594,0.2674,0.2682,0.2686,0.2577,0.2594,0.2463,0.2349,0.2699,0.2805,0.2806,0.2807,0.2808,0.2809,0,0.1816,0.1803,0.1781,0.1735,0.1703,0.1713,0.1719,0.1707,0.1733,0.1814,0.1898,0.2034,0.2154,0.23,0.2422,0.2392,0.2289,0.233,0.2059,0.2043,0.2371,0.2288,0.2258,0.2258,0.2258,0.2258,0.2259,0.2259,0.1789,0.1755,0.1748,0.1677,0.165,0.1603,0.1597,0.1591,0.1623,0.1659,0.1699,0.1786,0.1966,0.208,0.2085,0.2082,0.1901,0.1844,0.185,0.2028,0.2048,0.2067,0.1976,0.1881,0.1881,0.1364,0.136,0.1358]},{"header":{"parameterUnit":"m.s-1","parameterCategory":2,"la1":30.2991,"la2":30.254,"lo1":-89.0895,"lo2":-89.0444,"dy":0.0017,"dx":0.0017,"nx":28,"ny":28,"refTime":"2025-06-17T03:00:00:Z","depth":"0","parameterNumber":3,"parameterNumberName":"V-component_of_CURRENTS"},"data":[0,0,0,0,0,0,0,0,0,0,0,0,0,0,0,0,0,0,0,0,0,0,0,0,0,0,0,0,0,0,0,0,0,0,0,0,0,0,0,0,0,0,0,0,0,0,0,0,0,0,0,0,0,0,0,0,0,0,0.0451,0.045,0,0.0406,0.0406,0.0405,0.0361,0.036,0.0359,0.0358,0.0239,0.0237,0.0235,0,0,0,0,0,0,0,0,0,0,0,0,0,0.0489,0.0489,0.0451,0.045,0.0449,0.0406,0.0406,0.0405,0.0361,0.036,0.0359,0.0358,0.024,0.0237,0.0234,0,0,0,0,0,0,0,0,0,0,0,0,0,0.0463,0.0489,0.0451,0.0421,0.0417,0.0406,0.0406,0.0405,0.0361,0.036,0.0359,0.0358,0.0241,0.0238,0.0234,0.0234,0,0,0.0223,0.0221,0,0,0,0,0,0,0,0,0.0465,0.0462,0.0426,0.0423,0.0419,0.0386,0.0375,0.0344,0.0361,0.0384,0.0358,0.0357,0.0281,0.0274,0.0272,0.0229,0.0223,0.0222,0.022,0.0219,0.0218,0,0,0,0,0,0,0,0.0467,0.0464,0.0435,0.0425,0.0421,0.0406,0.0402,0.037,0.034,0.0382,0.0379,0.0371,0.0279,0.0276,0.0269,0.0222,0.0223,0.0219,0.0217,0.0216,0.0158,0.0158,0,0,0,0,0,0,0.047,0.0466,0.0436,0.0433,0.0437,0.0406,0.0401,0.0399,0.0342,0.0332,0.0372,0.0369,0.0283,0.0273,0.0264,0.026,0.0219,0.0215,0.0213,0.0157,0.0158,0.0158,0,0,0,0,0,0,0.0471,0.0468,0.0438,0.0447,0.0441,0.0407,0.0405,0.0399,0.0391,0.0334,0.0323,0.037,0.0281,0.0269,0.0245,0.0255,0.0214,0.021,0.0156,0.0157,0.0158,0.0252,0,0,0,0,0,0,0.0473,0.0469,0.0476,0.0447,0.0441,0.0444,0.0406,0.0399,0.0388,0.0384,0.0329,0.0317,0.028,0.0251,0.0241,0.0249,0.0207,0.0155,0.0157,0.0158,0.0248,0.0256,0.0263,0,0,0,0,0,0.0474,0.0487,0.0477,0.0473,0.0449,0.0445,0.0442,0.0414,0.0389,0.04,0.036,0.0318,0.0251,0.0249,0.0237,0.0244,0.0155,0.0156,0.0158,0.0244,0.0254,0.0263,0,0,0,0,0,0,0.0507,0.0483,0.0471,0.0476,0.0467,0.0437,0.044,0.0419,0.0398,0.0388,0.033,0.0317,0.0299,0.026,0.0259,0.0231,0.0195,0.0194,0.0264,0.0273,0.028,0.0297,0.0204,0,0,0,0,0,0.0519,0.0523,0.0499,0.0506,0.0501,0.0472,0.0466,0.0449,0.0422,0.0412,0.0374,0.033,0.0299,0.0277,0.0247,0.0233,0.0205,0.0228,0.0235,0.0242,0.0247,0.0222,0.0228,0.0163,0.0163,0.0163,0,0,0.0532,0.0521,0.0523,0.0514,0.05,0.0505,0.0466,0.0464,0.0466,0.0401,0.0393,0.0357,0.0302,0.029,0.0278,0.0257,0.0249,0.0244,0.025,0.0252,0.0224,0.023,0.0236,0.0164,0.0164,0.0164,0,0,0.0564,0.0553,0.0567,0.0563,0.055,0.0535,0.0536,0.0512,0.05,0.0491,0.0445,0.0422,0.037,0.0342,0.0316,0.0345,0.0292,0.0328,0.0374,0.035,0.0355,0.0359,0.0348,0.035,0.0327,0.0328,0.0328,0,0.0579,0.0592,0.0573,0.0584,0.0584,0.055,0.0566,0.0553,0.0527,0.0523,0.0499,0.0441,0.0397,0.0378,0.0388,0.0363,0.0342,0.0346,0.0361,0.0364,0.0367,0.0354,0.0355,0.0332,0.0332,0.0331,0.0331,0,0.0615,0.0628,0.0637,0.0639,0.0644,0.0652,0.0631,0.0632,0.0609,0.0592,0.0577,0.0527,0.0491,0.0474,0.0436,0.0433,0.0412,0.0378,0.0342,0.0379,0.0363,0.0363,0.0339,0.0337,0.0336,0.0335,0,0,0.063,0.0657,0.0657,0.0674,0.0672,0.0678,0.0688,0.0689,0.0695,0.0667,0.0675,0.0623,0.0596,0.0565,0.0519,0.0495,0.0501,0.0449,0.0446,0.0446,0.0457,0.0481,0.0483,0.0468,0.0468,0.0468,0.0444,0,0.066,0.0699,0.0703,0.0742,0.076,0.0746,0.0761,0.0759,0.0747,0.0749,0.07,0.0688,0.0629,0.0617,0.0586,0.0521,0.0502,0.0511,0.0413,0.0411,0.0434,0.0484,0.0499,0.0482,0.0444,0.0444,0.0443,0,0.0689,0.0711,0.0757,0.0797,0.0803,0.0822,0.0841,0.0852,0.0846,0.0839,0.0819,0.078,0.0747,0.0692,0.0606,0.0613,0.0547,0.0494,0.0491,0.048,0.0435,0.0434,0.0483,0.0378,0.0443,0.0443,0.0443,0,0.0709,0.075,0.0791,0.0801,0.0836,0.0856,0.0871,0.0879,0.0897,0.0899,0.0912,0.0861,0.0842,0.0753,0.0651,0.0624,0.0563,0.0508,0.0469,0.047,0.0447,0.0446,0.0389,0.0453,0.0453,0.0453,0.0453,0,0.0742,0.0773,0.0804,0.0825,0.087,0.0887,0.0933,0.0941,0.0965,0.0998,0.0959,0.0974,0.0855,0.0803,0.0692,0.06,0.0593,0.0495,0.0471,0.0482,0.0485,0.0362,0.0331,0.0452,0.0453,0.0453,0.0453,0,0.077,0.0791,0.0837,0.0874,0.0887,0.092,0.0973,0.1003,0.1025,0.1068,0.1075,0.106,0.1002,0.0889,0.0761,0.0666,0.054,0.053,0.0565,0.0546,0.0408,0.0384,0.0368,0.0364,0.048,0.0481,0.0481,0,0.0783,0.0811,0.0863,0.0887,0.0907,0.0954,0.0986,0.1026,0.1062,0.1121,0.1145,0.1127,0.1125,0.0977,0.0811,0.0656,0.0572,0.0566,0.0515,0.0425,0.0378,0.038,0.0377,0.052,0.0521,0.0521,0.0522,0,0.0798,0.0822,0.0859,0.0912,0.0952,0.1004,0.1055,0.1092,0.1145,0.1191,0.1253,0.127,0.1165,0.103,0.0845,0.0737,0.0549,0.0574,0.0459,0.0404,0.0423,0.0399,0.0516,0.0527,0.0527,0.0526,0.0526,0.0526,0.0797,0.083,0.088,0.0936,0.0982,0.1045,0.1085,0.1145,0.1217,0.1298,0.1327,0.1377,0.1206,0.0965,0.0828,0.0568,0.058,0.0445,0.0423,0.0432,0.0437,0.0587,0.0584,0.0584,0.0583,0.0583,0.0583,0,0.0794,0.0846,0.0895,0.0966,0.1013,0.1042,0.1123,0.1167,0.1247,0.1349,0.1418,0.1389,0.1156,0.0935,0.0578,0.0409,0.0391,0.0317,0.0289,0.0292,0.0388,0.0394,0.0376,0.0376,0.0376,0.0376,0.0376,0.0377,0.0799,0.0851,0.0892,0.0973,0.1016,0.1082,0.1124,0.1202,0.1286,0.1407,0.1469,0.1529,0.1393,0.0723,0.0318,0.0243,0.0151,0.0152,0.0107,0.0109,0.0117,0.0125,0.012,0.0045,0.0044,0.0025,0.0025,0.0024]}],[{"header":{"parameterUnit":"m.s-1","parameterCategory":2,"la1":30.2991,"la2":30.254,"lo1":-89.0895,"lo2":-89.0444,"dy":0.0017,"dx":0.0017,"nx":28,"ny":28,"refTime":"2025-06-17T03:00:00:Z","depth":"2","parameterNumber":2,"parameterNumberName":"U-component_of_CURRENTS"},"data":[0,0,0,0,0,0,0,0,0,0,0,0,0,0,0,0,0,0,0,0,0,0,0,0,0,0,0,0,0,0,0,0,0,0,0,0,0,0,0,0,0,0,0,0,0,0,0,0,0,0,0,0,0,0,0,0,0,0,0.1659,0.1659,0,0.1681,0.1681,0.1682,0.1701,0.1701,0.1701,0.17,0.1672,0.1671,0.167,0,0,0,0,0,0,0,0,0,0,0,0,0,0.1649,0.165,0.1659,0.1659,0.1659,0.1681,0.1681,0.1682,0.1701,0.1701,0.1701,0.17,0.1672,0.1671,0.167,0,0,0,0,0,0,0,0,0,0,0,0,0,0.1665,0.165,0.166,0.1668,0.1668,0.1681,0.1681,0.1682,0.1701,0.1701,0.1701,0.17,0.1672,0.1671,0.167,0.1671,0,0,0.1668,0.1667,0,0,0,0,0,0,0,0,0.1664,0.1666,0.1667,0.1667,0.1668,0.1684,0.1667,0.1675,0.1701,0.1694,0.17,0.17,0.1668,0.1668,0.168,0.167,0.1669,0.1668,0.1667,0.1667,0.1667,0,0,0,0,0,0,0,0.1663,0.1665,0.1673,0.1666,0.1667,0.1675,0.1677,0.1669,0.1685,0.1694,0.1695,0.169,0.1669,0.1681,0.1679,0.1668,0.1668,0.1667,0.1666,0.1666,0.1681,0.1682,0,0,0,0,0,0,0.1651,0.1664,0.1672,0.1673,0.166,0.1675,0.1678,0.1683,0.1686,0.1686,0.169,0.169,0.1682,0.168,0.1678,0.1717,0.1667,0.1666,0.1665,0.168,0.1681,0.1682,0,0,0,0,0,0,0.165,0.1652,0.1671,0.1665,0.1667,0.1675,0.1681,0.1683,0.1716,0.1683,0.1682,0.1721,0.1682,0.1679,0.1691,0.1714,0.1666,0.1665,0.1679,0.168,0.1682,0.1769,0,0,0,0,0,0,0.165,0.1652,0.1677,0.1664,0.1667,0.1704,0.1681,0.1684,0.1709,0.1711,0.1708,0.1705,0.1681,0.1693,0.1691,0.1712,0.1664,0.1678,0.168,0.1681,0.1765,0.1773,0.178,0,0,0,0,0,0.165,0.1672,0.1679,0.168,0.1693,0.1705,0.171,0.1716,0.1711,0.1742,0.1731,0.1706,0.1702,0.1694,0.169,0.1712,0.1677,0.1679,0.1681,0.1762,0.1772,0.178,0,0,0,0,0,0,0.1685,0.1675,0.1682,0.1703,0.1718,0.1707,0.1721,0.1733,0.1752,0.1744,0.1723,0.172,0.1738,0.1713,0.1705,0.1719,0.1683,0.1684,0.1745,0.1754,0.1762,0.1764,0.1663,0,0,0,0,0,0.1703,0.1709,0.1713,0.173,0.1732,0.1735,0.1747,0.1752,0.1751,0.1761,0.1749,0.1736,0.1742,0.174,0.1732,0.1744,0.1742,0.1752,0.176,0.1767,0.1766,0.1811,0.1823,0.1689,0.1689,0.1689,0,0,0.1709,0.1711,0.1711,0.1737,0.1735,0.1743,0.1743,0.1755,0.1773,0.1751,0.1764,0.1765,0.1753,0.1767,0.1772,0.175,0.1803,0.1769,0.1775,0.1771,0.1814,0.1828,0.184,0.169,0.169,0.169,0,0,0.1714,0.1733,0.1739,0.1755,0.1765,0.1763,0.1774,0.1776,0.1794,0.1812,0.1803,0.1822,0.181,0.1817,0.1818,0.1862,0.1847,0.1857,0.1895,0.194,0.1952,0.1962,0.1977,0.1988,0.1856,0.1857,0.1857,0,0.1727,0.1738,0.1747,0.1762,0.1765,0.1772,0.1781,0.1804,0.1815,0.1829,0.1819,0.1838,0.1833,0.1872,0.1891,0.1881,0.1896,0.1866,0.1952,0.1963,0.1972,0.1984,0.1995,0.1861,0.186,0.186,0.186,0,0.1731,0.1752,0.175,0.1763,0.1782,0.1785,0.1804,0.1828,0.1835,0.1849,0.1892,0.19,0.1909,0.1922,0.1922,0.1988,0.1974,0.1965,0.1935,0.1991,0.2,0.201,0.1867,0.1866,0.1864,0.1863,0,0,0.1735,0.1745,0.1754,0.1761,0.178,0.179,0.1819,0.1849,0.1875,0.1898,0.1933,0.197,0.198,0.1983,0.1997,0.2044,0.2129,0.204,0.204,0.2063,0.222,0.2065,0.206,0.2149,0.2152,0.2153,0.2201,0,0.1737,0.1749,0.1762,0.1778,0.178,0.18,0.1834,0.1871,0.1893,0.1928,0.1966,0.2007,0.2003,0.2032,0.2075,0.2125,0.216,0.2116,0.2153,0.2153,0.2017,0.2068,0.1882,0.1896,0.221,0.2212,0.2213,0,0.1758,0.1758,0.1763,0.1787,0.1792,0.1809,0.1852,0.1884,0.1942,0.1969,0.2009,0.2037,0.2115,0.2103,0.2202,0.2181,0.2202,0.2232,0.2234,0.2063,0.2016,0.1889,0.1902,0.2229,0.2228,0.2227,0.2226,0,0.1756,0.1775,0.177,0.1775,0.1798,0.1819,0.1839,0.1896,0.1924,0.2005,0.2025,0.2109,0.2143,0.2215,0.2248,0.2254,0.2335,0.2343,0.2214,0.2203,0.2033,0.2001,0.2401,0.2401,0.24,0.24,0.24,0,0.1755,0.1757,0.1772,0.1765,0.178,0.182,0.1851,0.1889,0.1948,0.1973,0.2046,0.2072,0.2179,0.2219,0.2268,0.2249,0.2344,0.2223,0.2209,0.2053,0.2025,0.2298,0.2286,0.2402,0.2402,0.2401,0.2401,0,0.1749,0.1745,0.1743,0.1765,0.1771,0.1788,0.1826,0.1858,0.1926,0.1958,0.1993,0.2063,0.213,0.2189,0.2288,0.2236,0.2271,0.2231,0.2018,0.1976,0.2111,0.2103,0.2128,0.2123,0.2119,0.2115,0.2112,0,0.1741,0.1741,0.1737,0.1728,0.1727,0.1755,0.1777,0.1837,0.1855,0.1937,0.1939,0.2016,0.2006,0.2052,0.2021,0.2037,0.217,0.1868,0.1831,0.2102,0.2087,0.2085,0.2082,0.1656,0.165,0.1645,0.164,0,0.1723,0.1721,0.1705,0.1702,0.1703,0.1705,0.1729,0.1729,0.1803,0.1824,0.1855,0.1861,0.1839,0.1748,0.1713,0.1703,0.1856,0.1755,0.2122,0.1727,0.1653,0.1639,0.1654,0.1593,0.1598,0.1601,0.1604,0.1606,0.1714,0.1689,0.1679,0.1658,0.1661,0.1647,0.1649,0.1675,0.1678,0.1669,0.1698,0.1633,0.1547,0.1393,0.1376,0.1394,0.15,0.148,0.1499,0.1523,0.1434,0.1353,0.122,0.1222,0.1224,0.1226,0.1228,0,0.1682,0.164,0.1638,0.159,0.1583,0.1622,0.1612,0.1576,0.1556,0.1526,0.1499,0.1203,0.1105,0.1136,0.1051,0.1005,0.1028,0.1024,0.1075,0.1117,0.1156,0.1053,0.0736,0.0736,0.0735,0.0735,0,0,0.1635,0.1594,0.1567,0.1506,0.152,0.1512,0.1513,0.1452,0.1401,0.1198,0.1123,0.1062,0.1044,0.0867,0.0816,0.0816,0.0983,0.0779,0.1155,0.1255,0.1295,0.1372,0.1251,0,0,0,0,0]},{"header":{"parameterUnit":"m.s-1","parameterCategory":2,"la1":30.2991,"la2":30.254,"lo1":-89.0895,"lo2":-89.0444,"dy":0.0017,"dx":0.0017,"nx":28,"ny":28,"refTime":"2025-06-17T03:00:00:Z","depth":"2","parameterNumber":3,"parameterNumberName":"V-component_of_CURRENTS"},"data":[0,0,0,0,0,0,0,0,0,0,0,0,0,0,0,0,0,0,0,0,0,0,0,0,0,0,0,0,0,0,0,0,0,0,0,0,0,0,0,0,0,0,0,0,0,0,0,0,0,0,0,0,0,0,0,0,0,0,0.0122,0.0121,0,0.0057,0.0057,0.0057,0.006,0.006,0.006,0.006,-0.0026,-0.0029,-0.0031,0,0,0,0,0,0,0,0,0,0,0,0,0,0.0257,0.0255,0.0123,0.0121,0.0119,0.0057,0.0057,0.0057,0.006,0.006,0.006,0.006,-0.0026,-0.0028,-0.0031,0,0,0,0,0,0,0,0,0,0,0,0,0,0.0206,0.0255,0.0123,0.0105,0.0102,0.0057,0.0057,0.0057,0.006,0.006,0.006,0.006,-0.0025,-0.0028,-0.0031,-0.005,0,0,-0.0042,-0.0043,0,0,0,0,0,0,0,0,0.0209,0.0202,0.0109,0.0106,0.0102,0.0057,0.0072,0.0017,0.006,0.0087,0.006,0.006,-0.0007,-0.0012,-0.0009,-0.0054,-0.0058,-0.0042,-0.0044,-0.0045,-0.0046,0,0,0,0,0,0,0,0.0212,0.0205,0.0108,0.0107,0.0103,0.0102,0.0096,0.0063,0.0049,0.0085,0.0082,0.0058,-0.0008,-0.0005,-0.0011,-0.0059,-0.0042,-0.0045,-0.0047,-0.0048,-0.0103,-0.0103,0,0,0,0,0,0,0.0198,0.0208,0.0109,0.0104,0.0144,0.0099,0.0092,0.0081,0.005,0.0042,0.0058,0.0058,0.0001,-0.0007,-0.0014,0.0009,-0.0045,-0.0048,-0.005,-0.0104,-0.0103,-0.0103,0,0,0,0,0,0,0.0202,0.0191,0.0112,0.0146,0.0134,0.0095,0.0083,0.0079,0.0105,0.0028,0.0022,0.0089,0.0,-0.0009,-0.0012,0.0003,-0.005,-0.0053,-0.0105,-0.0104,-0.0103,0.0023,0,0,0,0,0,0,0.0206,0.0193,0.0211,0.0145,0.0131,0.0135,0.0082,0.0077,0.0083,0.0084,0.0052,0.0042,-0.0001,-0.0007,-0.0015,-0.0002,-0.0056,-0.0105,-0.0104,-0.0103,0.0018,0.0028,0.0037,0,0,0,0,0,0.0212,0.0221,0.0213,0.0201,0.0147,0.0136,0.0134,0.011,0.0085,0.0129,0.0088,0.0045,-0.0008,-0.0008,-0.0019,-0.0006,-0.0106,-0.0104,-0.0103,0.0014,0.0026,0.0036,0,0,0,0,0,0,0.0283,0.0218,0.0209,0.0198,0.0193,0.0134,0.0141,0.013,0.0134,0.0125,0.0063,0.0053,0.0049,0.0006,0.0007,-0.0023,-0.0069,-0.007,0.0024,0.0034,0.0043,0.0059,-0.0058,0,0,0,0,0,0.0305,0.0297,0.0252,0.0248,0.0239,0.0201,0.0197,0.0189,0.0159,0.0163,0.0121,0.0073,0.0041,0.003,-0.0008,-0.0011,-0.0064,-0.0016,-0.0007,0.0002,0.0005,-0.0038,-0.0031,-0.0099,-0.0099,-0.0099,0,0,0.0312,0.0287,0.0274,0.0264,0.0239,0.0233,0.0203,0.0204,0.0211,0.0147,0.0141,0.0106,0.0046,0.004,0.0032,0.0012,-0.001,0.0003,0.0011,0.001,-0.0036,-0.0029,-0.0023,-0.0098,-0.0098,-0.0098,0,0,0.0328,0.0317,0.0321,0.0321,0.0307,0.0281,0.0292,0.0256,0.0265,0.026,0.0206,0.019,0.0133,0.0103,0.0075,0.0111,0.0038,0.0096,0.016,0.012,0.0125,0.0129,0.0063,0.006,0.0104,0.0104,0.0104,0,0.0346,0.0347,0.0328,0.0339,0.0332,0.0303,0.0317,0.0315,0.029,0.0295,0.0272,0.0195,0.0156,0.0142,0.0161,0.0132,0.0093,0.013,0.0134,0.0137,0.0139,0.007,0.0065,0.011,0.0109,0.0109,0.0108,0,0.0355,0.0375,0.0371,0.0367,0.0379,0.0383,0.0365,0.0382,0.0364,0.0348,0.0345,0.0295,0.025,0.0239,0.0214,0.0216,0.0176,0.0152,0.0113,0.0154,0.0077,0.007,0.0119,0.0117,0.0115,0.0113,0,0,0.0355,0.0371,0.0382,0.0397,0.0399,0.0401,0.042,0.0432,0.0432,0.042,0.0411,0.0387,0.0364,0.0333,0.03,0.0281,0.0266,0.0243,0.0238,0.0189,0.0165,0.0099,0.0084,0.0256,0.0255,0.0255,0.0103,0,0.0375,0.0409,0.0416,0.0446,0.0456,0.0454,0.0476,0.0492,0.0475,0.0457,0.0433,0.0415,0.0398,0.0392,0.0368,0.0294,0.0256,0.0309,0.0121,0.0114,0.0062,0.0077,0.0158,0.0027,0.0096,0.0094,0.0093,0,0.0404,0.0424,0.0468,0.0502,0.0506,0.0524,0.0546,0.0564,0.055,0.0543,0.0522,0.0484,0.0468,0.0433,0.0334,0.0375,0.0282,0.0217,0.0209,0.0099,0.0037,-0.0004,0.001,0.0081,0.0082,0.0083,0.0083,0,0.043,0.047,0.051,0.0515,0.0539,0.0574,0.0591,0.0601,0.0619,0.0603,0.0594,0.055,0.0511,0.0434,0.0303,0.0332,0.0149,0.0158,-0.0002,-0.001,-0.0005,-0.0012,0.0061,0.0062,0.0062,0.0062,0.0063,0,0.0447,0.0469,0.053,0.0538,0.0592,0.0618,0.0667,0.0666,0.0673,0.0666,0.065,0.061,0.0514,0.0395,0.0296,0.0112,0.0134,0.0004,-0.0048,0.0037,0.0037,0.0034,0.0033,0.0057,0.0058,0.0059,0.006,0,0.0445,0.0476,0.052,0.0581,0.0605,0.0647,0.071,0.0732,0.0752,0.0729,0.0739,0.0649,0.0507,0.0363,0.0176,0.0082,-0.0069,-0.0157,-0.0067,-0.0104,-0.0196,-0.0189,-0.0308,-0.0312,-0.0315,-0.0317,-0.0319,0,0.0439,0.0475,0.0558,0.0595,0.0617,0.0691,0.0741,0.0771,0.0764,0.0738,0.0696,0.0582,0.0461,0.0169,0.0024,-0.0175,-0.0215,-0.0278,-0.0202,-0.0193,-0.0231,-0.0219,-0.0209,-0.0154,-0.0154,-0.0155,-0.0155,0,0.0434,0.0479,0.0512,0.0618,0.0676,0.0728,0.0771,0.0773,0.0781,0.076,0.0672,0.06,0.0351,0.017,-0.0103,-0.0212,-0.0217,-0.0297,-0.0315,-0.0075,-0.006,-0.0094,-0.0085,-0.0159,-0.0159,-0.0158,-0.0158,-0.0158,0.0453,0.0464,0.0557,0.0612,0.07,0.0746,0.0796,0.0818,0.0819,0.0777,0.0649,0.0557,0.0328,0.0027,-0.0149,-0.0276,-0.0283,-0.0331,-0.0324,-0.0318,-0.0274,-0.0266,-0.0397,-0.0398,-0.0399,-0.0399,-0.04,0,0.0455,0.0458,0.0542,0.0603,0.0697,0.0779,0.0803,0.0804,0.0807,0.079,0.0724,0.0439,0.0274,0.0058,-0.0095,-0.0256,-0.0189,-0.0331,-0.0197,-0.0194,-0.0191,-0.0135,-0.0224,-0.0224,-0.0224,-0.0224,0,0,0.0438,0.0463,0.0458,0.0565,0.0683,0.0806,0.0856,0.0825,0.0806,0.0714,0.0692,0.0604,0.0321,0.0195,-0.0007,-0.0083,-0.0086,-0.0095,-0.0217,-0.0028,-0.0022,-0.0177,-0.0088,0,0,0,0,0]}],[{"header":{"parameterUnit":"m.s-1","parameterCategory":2,"la1":30.2991,"la2":30.254,"lo1":-89.0895,"lo2":-89.0444,"dy":0.0017,"dx":0.0017,"nx":28,"ny":28,"refTime":"2025-06-17T03:00:00:Z","depth":"4","parameterNumber":2,"parameterNumberName":"U-component_of_CURRENTS"},"data":[0,0,0,0,0,0,0,0,0,0,0,0,0,0,0,0,0,0,0,0,0,0,0,0,0,0,0,0,0,0,0,0,0,0,0,0,0,0,0,0,0,0,0,0,0,0,0,0,0,0,0,0,0,0,0,0,0,0,0.0018,0.0019,0,0.0064,0.0064,0.0065,0.0118,0.0118,0.0119,0.0119,0.0192,0.0193,0.0194,0,0,0,0,0,0,0,0,0,0,0,0,0,0.0007,0.0006,0.0018,0.0019,0.0019,0.0064,0.0065,0.0065,0.0117,0.0118,0.0119,0.012,0.0191,0.0193,0.0194,0,0,0,0,0,0,0,0,0,0,0,0,0,0.003,0.0006,0.0018,0.0049,0.0052,0.0064,0.0065,0.0066,0.0117,0.0118,0.0119,0.012,0.0191,0.0193,0.0195,0.019,0,0,0.0201,0.0202,0,0,0,0,0,0,0,0,0.0028,0.003,0.0044,0.0047,0.005,0.0084,0.0087,0.0108,0.0117,0.0095,0.0119,0.012,0.0156,0.0161,0.017,0.0193,0.0197,0.0201,0.0202,0.0203,0.0204,0,0,0,0,0,0,0,0.0027,0.0029,0.0039,0.0044,0.0048,0.007,0.0075,0.0091,0.0122,0.0097,0.01,0.0101,0.0158,0.0168,0.0172,0.0198,0.0201,0.0203,0.0204,0.0205,0.0247,0.0246,0,0,0,0,0,0,0.0014,0.0027,0.0037,0.004,0.0039,0.0069,0.0074,0.0074,0.0122,0.0129,0.0101,0.0104,0.0164,0.017,0.0175,0.0201,0.0203,0.0205,0.0206,0.0247,0.0247,0.0246,0,0,0,0,0,0,0.0013,0.0014,0.0035,0.0033,0.0037,0.0068,0.0068,0.0074,0.01,0.0124,0.0132,0.0121,0.0165,0.0172,0.0201,0.0204,0.0206,0.0208,0.0247,0.0247,0.0246,0.0235,0,0,0,0,0,0,0.0013,0.0014,0.0017,0.0032,0.0036,0.0051,0.0067,0.0075,0.0098,0.0103,0.0144,0.015,0.0166,0.0198,0.0203,0.0207,0.021,0.0247,0.0247,0.0247,0.0236,0.0235,0.0234,0,0,0,0,0,0.0012,0.0011,0.0017,0.0018,0.0037,0.0051,0.0056,0.0082,0.0098,0.011,0.0136,0.015,0.02,0.02,0.0206,0.021,0.0247,0.0247,0.0247,0.0236,0.0235,0.0234,0,0,0,0,0,0,0.0008,0.0016,0.0023,0.0025,0.004,0.0059,0.0072,0.0088,0.0118,0.0128,0.0153,0.0161,0.0183,0.0197,0.0197,0.0219,0.0224,0.0225,0.0214,0.0213,0.0212,0.0216,0.0211,0,0,0,0,0,0.0006,0.0009,0.002,0.0024,0.0031,0.0053,0.0065,0.0082,0.0104,0.012,0.0145,0.0168,0.0183,0.02,0.0214,0.0233,0.0242,0.0237,0.0236,0.0235,0.0242,0.0255,0.0255,0.0245,0.0245,0.0245,0,0,0.0003,0.001,0.0011,0.0023,0.0039,0.0049,0.0064,0.0084,0.0095,0.0122,0.0151,0.0166,0.0185,0.0202,0.0214,0.0219,0.024,0.0235,0.0234,0.0241,0.0254,0.0255,0.0256,0.0245,0.0245,0.0245,0,0,0.0002,0.0008,0.0014,0.0024,0.0044,0.0055,0.0062,0.0086,0.0103,0.0125,0.0142,0.016,0.019,0.0202,0.0211,0.0213,0.023,0.0218,0.0224,0.0236,0.0238,0.0239,0.0242,0.0244,0.0223,0.0223,0.0223,0,-0.0,0.0009,0.0018,0.0028,0.0038,0.0057,0.0069,0.0082,0.0112,0.0125,0.0134,0.0172,0.0187,0.0205,0.0206,0.0211,0.0222,0.0228,0.0236,0.0237,0.0238,0.0242,0.0244,0.0222,0.0222,0.0222,0.0222,0,0.0004,0.0015,0.002,0.0036,0.0047,0.0061,0.0073,0.009,0.011,0.0123,0.0147,0.0166,0.0193,0.0192,0.0204,0.022,0.0225,0.0228,0.0239,0.0239,0.0242,0.0244,0.0221,0.0221,0.0222,0.0222,0,0,-0.0012,0.0017,0.002,0.0035,0.0055,0.0064,0.0078,0.0097,0.0114,0.0134,0.0155,0.0172,0.0189,0.0201,0.0213,0.0224,0.0236,0.0237,0.0238,0.0242,0.0264,0.0256,0.0257,0.0247,0.0248,0.0248,0.0259,0,-0.0007,0.0015,0.0026,0.0047,0.0061,0.0077,0.0089,0.0106,0.0125,0.0147,0.016,0.0186,0.019,0.0211,0.022,0.0236,0.0244,0.0233,0.0263,0.0264,0.0258,0.026,0.025,0.0261,0.0261,0.0262,0.0262,0,-0.0006,0.0012,0.0035,0.0062,0.0069,0.0082,0.011,0.0123,0.0147,0.0164,0.0187,0.0204,0.0227,0.0228,0.0253,0.0251,0.026,0.0265,0.0266,0.0267,0.0261,0.0264,0.0266,0.0266,0.0265,0.0265,0.0265,0,-0.0013,0.0017,0.0038,0.0047,0.0077,0.0092,0.011,0.0133,0.0149,0.0183,0.0203,0.0226,0.0252,0.0262,0.0272,0.0275,0.0289,0.0292,0.0287,0.0286,0.0296,0.0295,0.0307,0.0307,0.0307,0.0307,0.0307,0,-0.0011,0.0003,0.0041,0.0052,0.0076,0.0097,0.0123,0.0143,0.0173,0.0193,0.022,0.0232,0.0266,0.0276,0.0277,0.0286,0.0294,0.0292,0.0292,0.0289,0.0287,0.0297,0.0295,0.0307,0.0307,0.0307,0.0307,0,-0.0025,0.0001,0.0023,0.0061,0.0075,0.0092,0.0131,0.0146,0.0183,0.0211,0.0228,0.0253,0.0264,0.0277,0.0292,0.0301,0.0302,0.0299,0.0288,0.0287,0.0291,0.0289,0.0309,0.0309,0.0309,0.0309,0.0309,0,-0.0029,-0.0017,0.0024,0.004,0.0059,0.009,0.0108,0.0147,0.0161,0.021,0.0215,0.0246,0.0258,0.0268,0.0274,0.0281,0.028,0.0299,0.0305,0.0294,0.0293,0.0291,0.0289,0.0308,0.0308,0.0308,0.0308,0,-0.0044,-0.0029,-0.0012,0.0025,0.005,0.0071,0.0102,0.0115,0.0158,0.0193,0.0221,0.0246,0.0253,0.0257,0.027,0.0267,0.0301,0.0298,0.0299,0.0305,0.0294,0.0292,0.029,0.0308,0.0308,0.0308,0.0308,0,-0.0061,-0.0055,-0.0026,0.0006,0.0034,0.0054,0.007,0.01,0.0126,0.0191,0.0187,0.0213,0.0238,0.0247,0.0241,0.0257,0.0265,0.0292,0.0293,0.0294,0.0285,0.0269,0.028,0,0,0,0,0,-0.0075,-0.0065,-0.0043,-0.001,0.0017,0.0038,0.0066,0.0081,0.0124,0.0149,0.0181,0.0185,0.0217,0.0211,0.0224,0.0219,0.025,0.0236,0.0277,0.0306,0.0306,0.0298,0,0,0,0,0,0,-0.0083,-0.0069,-0.0052,-0.0025,-0.0003,0.0021,0.0041,0.0067,0.0081,0.013,0.0129,0.0195,0.0193,0.0203,0.0222,0.0227,0.026,0.0257,0.0258,0.0306,0.0306,0.0306,0.0298,0,0,0,0,0]},{"header":{"parameterUnit":"m.s-1","parameterCategory":2,"la1":30.2991,"la2":30.254,"lo1":-89.0895,"lo2":-89.0444,"dy":0.0017,"dx":0.0017,"nx":28,"ny":28,"refTime":"2025-06-17T03:00:00:Z","depth":"4","parameterNumber":3,"parameterNumberName":"V-component_of_CURRENTS"},"data":[0,0,0,0,0,0,0,0,0,0,0,0,0,0,0,0,0,0,0,0,0,0,0,0,0,0,0,0,0,0,0,0,0,0,0,0,0,0,0,0,0,0,0,0,0,0,0,0,0,0,0,0,0,0,0,0,0,0,0.008,0.008,0,0.0039,0.0038,0.0038,0.0033,0.0034,0.0034,0.0035,-0.0041,-0.0043,-0.0045,0,0,0,0,0,0,0,0,0,0,0,0,0,0.0116,0.0115,0.008,0.008,0.008,0.0039,0.0038,0.0038,0.0033,0.0034,0.0035,0.0035,-0.004,-0.0043,-0.0046,0,0,0,0,0,0,0,0,0,0,0,0,0,0.0089,0.0115,0.008,0.0073,0.0073,0.0039,0.0038,0.0038,0.0033,0.0034,0.0035,0.0036,-0.0039,-0.0042,-0.0046,-0.0086,0,0,-0.0058,-0.0059,0,0,0,0,0,0,0,0,0.009,0.0087,0.0075,0.0074,0.0073,0.0043,0.0023,-0.0005,0.0033,0.0047,0.0035,0.0036,-0.0015,-0.0021,-0.0032,-0.0089,-0.0092,-0.0058,-0.006,-0.0062,-0.0063,0,0,0,0,0,0,0,0.0092,0.0089,0.0063,0.0074,0.0073,0.0059,0.0056,0.0018,0.001,0.0045,0.0045,0.0043,-0.0016,-0.0028,-0.0034,-0.0094,-0.0058,-0.0061,-0.0064,-0.0065,-0.0207,-0.0208,0,0,0,0,0,0,0.0101,0.0091,0.0064,0.0062,0.0085,0.0058,0.0055,0.0051,0.0011,0.0006,0.0042,0.0043,-0.0022,-0.003,-0.0037,-0.0105,-0.0062,-0.0065,-0.0068,-0.0205,-0.0207,-0.0208,0,0,0,0,0,0,0.0102,0.0099,0.0066,0.0076,0.0071,0.0057,0.0052,0.005,0.0032,0.0009,0.0004,0.0027,-0.0022,-0.0031,-0.0084,-0.0107,-0.0067,-0.0071,-0.0203,-0.0206,-0.0208,-0.023,0,0,0,0,0,0,0.0103,0.01,0.01,0.0077,0.0071,0.004,0.0051,0.0048,0.003,0.0031,-0.0006,-0.0011,-0.0022,-0.0079,-0.0088,-0.0112,-0.0073,-0.0201,-0.0204,-0.0207,-0.0228,-0.0233,-0.0238,0,0,0,0,0,0.0105,0.0099,0.01,0.0097,0.0072,0.0039,0.0034,0.0026,0.0029,0.0014,-0.0014,-0.001,-0.0103,-0.0084,-0.0094,-0.0119,-0.02,-0.0203,-0.0207,-0.0225,-0.0232,-0.0238,0,0,0,0,0,0,0.011,0.0097,0.0098,0.0088,0.0065,0.0039,0.0029,0.0018,-0.0015,-0.0018,-0.0037,-0.0046,-0.01,-0.0111,-0.0089,-0.0169,-0.0149,-0.0154,-0.0159,-0.0166,-0.0171,-0.0153,-0.0077,0,0,0,0,0,0.0113,0.0109,0.0087,0.0078,0.0068,0.0045,0.0032,0.0019,-0.0012,-0.0025,-0.0055,-0.0087,-0.0124,-0.0144,-0.018,-0.0228,-0.0214,-0.025,-0.0255,-0.0259,-0.0253,-0.0245,-0.0248,-0.022,-0.0219,-0.0219,0,0,0.0113,0.0106,0.0104,0.008,0.0064,0.0039,0.0039,0.0009,-0.0016,-0.0031,-0.0081,-0.0112,-0.0142,-0.0194,-0.0218,-0.0205,-0.0263,-0.0263,-0.0266,-0.0257,-0.0249,-0.0251,-0.0253,-0.0222,-0.0221,-0.0221,0,0,0.0107,0.0104,0.0096,0.0076,0.0048,0.0029,0.0018,-0.0023,-0.0043,-0.01,-0.0113,-0.0155,-0.0219,-0.0238,-0.0256,-0.0312,-0.0293,-0.0329,-0.0337,-0.0331,-0.0332,-0.0333,-0.0327,-0.0328,-0.0327,-0.0327,-0.0327,0,0.0106,0.0096,0.0086,0.0068,0.005,0.0024,-0.0002,-0.0031,-0.0088,-0.011,-0.0119,-0.0207,-0.0236,-0.0281,-0.0302,-0.0321,-0.0312,-0.031,-0.0334,-0.0335,-0.0336,-0.0329,-0.0329,-0.0328,-0.0328,-0.0328,-0.0328,0,0.009,0.008,0.007,0.0045,0.0021,-0.0009,-0.0046,-0.0082,-0.0114,-0.0144,-0.0207,-0.0249,-0.0292,-0.0316,-0.033,-0.0357,-0.0349,-0.0342,-0.0311,-0.0339,-0.0332,-0.0331,-0.033,-0.033,-0.0329,-0.0329,0,0,0.008,0.0064,0.0058,0.0048,0.0004,-0.002,-0.0063,-0.0112,-0.0135,-0.0197,-0.023,-0.0303,-0.0319,-0.0339,-0.0362,-0.0363,-0.0372,-0.0357,-0.0356,-0.0337,-0.0356,-0.0345,-0.0343,-0.0364,-0.0364,-0.0364,-0.0351,0,0.0065,0.0044,0.0032,-0.0003,-0.0022,-0.0054,-0.0088,-0.0134,-0.0176,-0.0217,-0.026,-0.0301,-0.0328,-0.0347,-0.0359,-0.0368,-0.037,-0.0376,-0.0343,-0.0342,-0.0317,-0.0342,-0.0364,-0.035,-0.035,-0.035,-0.035,0,0.0041,0.0034,0.0006,-0.0018,-0.003,-0.0058,-0.0109,-0.0143,-0.0197,-0.0226,-0.027,-0.0298,-0.0332,-0.0339,-0.0359,-0.036,-0.0362,-0.0363,-0.0362,-0.0339,-0.033,-0.0316,-0.0348,-0.0349,-0.0349,-0.0349,-0.0349,0,0.0033,0.0009,-0.0008,-0.0021,-0.0054,-0.0077,-0.0102,-0.0153,-0.0174,-0.0225,-0.0235,-0.0287,-0.0298,-0.0315,-0.0337,-0.0342,-0.0341,-0.0343,-0.0335,-0.0334,-0.0335,-0.0333,-0.0344,-0.0344,-0.0344,-0.0344,-0.0344,0,0.001,-0.0007,-0.0011,-0.0026,-0.0052,-0.0075,-0.011,-0.0142,-0.0171,-0.019,-0.0234,-0.025,-0.0288,-0.0301,-0.0325,-0.033,-0.033,-0.0337,-0.033,-0.0348,-0.0349,-0.0334,-0.0333,-0.0344,-0.0344,-0.0344,-0.0344,0,-0.0014,-0.0014,-0.0033,-0.0052,-0.006,-0.0083,-0.0106,-0.0124,-0.0144,-0.0164,-0.0172,-0.021,-0.023,-0.0263,-0.0282,-0.03,-0.0312,-0.0311,-0.0329,-0.0323,-0.0313,-0.0314,-0.0299,-0.0299,-0.0298,-0.0298,-0.0298,0,-0.0032,-0.0041,-0.0049,-0.0056,-0.007,-0.0092,-0.0107,-0.0124,-0.0133,-0.0144,-0.015,-0.0165,-0.0196,-0.0213,-0.0255,-0.0287,-0.0293,-0.0293,-0.0311,-0.0314,-0.0308,-0.031,-0.0311,-0.0297,-0.0297,-0.0297,-0.0297,0,-0.0066,-0.0064,-0.0074,-0.0078,-0.0091,-0.01,-0.0114,-0.0108,-0.0119,-0.0122,-0.0125,-0.0145,-0.0163,-0.0204,-0.0223,-0.0252,-0.0293,-0.0289,-0.029,-0.0307,-0.0311,-0.0306,-0.0308,-0.0295,-0.0296,-0.0296,-0.0296,0,-0.0091,-0.0099,-0.0097,-0.0103,-0.0111,-0.0109,-0.0112,-0.0109,-0.0109,-0.0104,-0.0107,-0.0132,-0.015,-0.0186,-0.0212,-0.0232,-0.0241,-0.0246,-0.025,-0.0252,-0.0249,-0.0247,-0.0205,0,0,0,0,0,-0.0116,-0.0116,-0.012,-0.012,-0.0121,-0.0122,-0.0119,-0.0114,-0.0104,-0.0098,-0.0097,-0.0117,-0.0148,-0.0173,-0.0189,-0.0215,-0.0253,-0.0235,-0.0263,-0.0287,-0.0289,-0.0293,0,0,0,0,0,0,-0.0131,-0.0137,-0.0125,-0.0127,-0.0126,-0.0128,-0.0122,-0.0113,-0.0108,-0.0098,-0.0117,-0.0117,-0.0156,-0.0136,-0.0188,-0.0196,-0.0215,-0.0252,-0.0252,-0.0286,-0.0288,-0.0289,-0.0294,0,0,0,0,0]}]]